Location: Te Maire Creek
(41.1333°S, 175.9167°E)
Time: 21:59:36
(UTC+00:00)

Okean 1-7 Rocket - Pass Details

Date: 19 May 2024
Orbit: 612 x 647 km, 82.5° (Epoch: 22 June)

Event Time Altitude Azimuth Distance (km) Brightness Sun altitude
Rises 18:49:49 0° 190° (S) 2,941 6.7 -6.4°
Reaches altitude 10° 18:52:03 10° 191° (S) 2,031 5.9 -6.0°
Maximum altitude 18:56:33 77° 275° (W) 659 3.6 -5.2°
Drops below altitude 10° 19:01:03 10° 1° (N) 2,023 6.5 -4.4°
Sets 19:03:17 0° 2° (N) 2,928 7.4 -4.0°
